Time,TemperatureF,DewpointF,PressureIn,WindDirection,WindDirectionDegrees,WindSpeedMPH,WindSpeedGustMPH,Humidity,HourlyPrecipIn,Conditions,Clouds,dailyrainin,SoftwareType,DateUTC
2013-05-21 00:02:00,54.0,-99.9,-100.00,North,360,12.0,16.0,-999,-99.99,,,-99.99,,2013-05-21 07:02:00,
2013-05-21 02:01:00,52.0,-99.9,-100.00,WNW,292,10.0,12.0,-999,-99.99,,,-99.99,,2013-05-21 09:01:00,
2013-05-21 03:03:00,50.0,-99.9,-100.00,NW,315,7.0,12.0,-999,-99.99,,,-99.99,,2013-05-21 10:03:00,
2013-05-21 04:03:00,48.0,-99.9,-100.00,North,360,7.0,12.0,-999,-99.99,,,-99.99,,2013-05-21 11:03:00,
2013-05-21 05:02:00,48.0,-99.9,-100.00,SSW,202,8.0,14.0,-999,-99.99,,,-99.99,,2013-05-21 12:02:00,
2013-05-21 06:01:00,47.0,-99.9,-100.00,SSE,158,7.0,12.0,-999,-99.99,,,-99.99,,2013-05-21 13:01:00,
2013-05-21 07:02:00,47.0,-99.9,-100.00,SE,135,14.0,16.0,-999,-99.99,,,-99.99,,2013-05-21 14:02:00,
2013-05-21 08:01:00,47.0,-99.9,-100.00,South,180,12.0,16.0,-999,-99.99,,,-99.99,,2013-05-21 15:01:00,
2013-05-21 09:03:00,47.0,-99.9,-100.00,SSE,158,14.0,18.0,-999,-99.99,,,-99.99,,2013-05-21 16:03:00,
2013-05-21 10:02:00,48.0,-99.9,-100.00,SSE,158,10.0,17.0,-999,-99.99,,,-99.99,,2013-05-21 17:02:00,
2013-05-21 11:02:00,49.0,-99.9,-100.00,SSE,158,12.0,18.0,-999,-99.99,,,-99.99,,2013-05-21 18:02:00,
2013-05-21 12:02:00,50.0,-99.9,-100.00,SSE,158,10.0,17.0,-999,-99.99,,,-99.99,,2013-05-21 19:02:00,
2013-05-21 13:03:00,52.0,-99.9,-100.00,SSE,158,6.0,13.0,-999,-99.99,,,-99.99,,2013-05-21 20:03:00,
2013-05-21 14:02:00,53.0,-99.9,-100.00,SSE,158,12.0,14.0,-999,-99.99,,,-99.99,,2013-05-21 21:02:00,
2013-05-21 15:03:00,55.0,-99.9,-100.00,ESE,112,6.0,15.0,-999,-99.99,,,-99.99,,2013-05-21 22:03:00,
2013-05-21 16:02:00,54.0,-99.9,-100.00,West,270,8.0,22.0,-999,-99.99,,,-99.99,,2013-05-21 23:02:00,
2013-05-21 16:10:00,55.0,-99.9,-100.00,WSW,248,5.0,13.0,-999,-99.99,,,-99.99,,2013-05-21 23:10:00,
2013-05-21 17:02:00,55.0,-99.9,-100.00,WSW,248,5.0,13.0,-999,-99.99,,,-99.99,,2013-05-22 00:02:00,
2013-05-21 18:01:00,53.0,-99.9,-100.00,SW,225,5.0,12.0,-999,-99.99,,,-99.99,,2013-05-22 01:01:00,
2013-05-21 19:02:00,52.0,-99.9,-100.00,ESE,112,1.0,9.0,-999,-99.99,,,-99.99,,2013-05-22 02:02:00,
2013-05-21 19:10:00,53.0,-99.9,-100.00,WSW,248,5.0,7.0,-999,-99.99,,,-99.99,,2013-05-22 02:10:00,
2013-05-21 20:02:00,53.0,-99.9,-100.00,WSW,248,5.0,7.0,-999,-99.99,,,-99.99,,2013-05-22 03:02:00,
2013-05-21 21:04:00,52.0,-99.9,-100.00,South,180,16.0,20.0,-999,-99.99,,,-99.99,,2013-05-22 04:04:00,
2013-05-21 22:03:00,50.0,-99.9,-100.00,SSE,158,16.0,23.0,-999,-99.99,,,-99.99,,2013-05-22 05:03:00,
2013-05-21 23:01:00,50.0,-99.9,-100.00,South,180,14.0,23.0,-999,-99.99,,,-99.99,,2013-05-22 06:01:00,